MDT,Max TemperatureF,Mean TemperatureF,Min TemperatureF,Max Dew PointF,MeanDew PointF,Min DewpointF,Max Humidity, Mean Humidity, Min Humidity, Max Sea Level PressureIn, Mean Sea Level PressureIn, Min Sea Level PressureIn, Max VisibilityMiles, Mean VisibilityMiles, Min VisibilityMiles, Max Wind SpeedMPH, Mean Wind SpeedMPH, Max Gust SpeedMPH,PrecipitationIn, CloudCover, Events, WindDirDegrees
2013-6-1,70,58,45,41,38,33,83,55,27,30.26,30.15,30.02,10,10,10,20,6,24,0.00,1,,344
2013-6-2,84,66,48,49,38,29,77,46,14,30.01,29.74,29.48,10,10,10,31,9,38,0.00,0,,140
2013-6-3,74,63,51,50,34,23,72,44,15,29.96,29.72,29.52,10,10,10,32,19,40,0.01,2,,315
2013-6-4,62,54,46,35,33,31,65,51,36,30.22,30.12,29.95,10,10,10,24,14,32,T,5,,317
2013-6-5,72,57,41,36,32,24,76,47,17,30.21,30.11,29.97,10,9,4,13,4,22,0.00,2,,151
2013-6-6,81,64,47,45,36,32,61,40,18,30.02,29.97,29.91,10,10,7,14,4,17,0.00,1,,327
2013-6-7,85,70,55,47,43,37,61,41,20,29.93,29.77,29.56,10,10,10,29,6,40,0.01,1,,124
2013-6-8,82,70,57,52,38,30,63,40,16,29.85,29.78,29.63,10,10,10,36,14,45,T,1,Rain-Thunderstorm,339
2013-6-9,91,70,48,42,36,31,66,40,13,29.90,29.76,29.58,10,10,10,16,5,30,0.00,0,,171
2013-6-10,92,78,63,49,44,38,49,33,16,29.73,29.65,29.55,10,10,10,28,10,35,0.00,0,,304
2013-6-11,84,71,57,50,47,40,72,50,27,29.90,29.72,29.62,10,10,10,37,8,46,T,1,Rain,251
2013-6-12,87,70,52,57,50,39,78,50,22,30.02,29.94,29.84,10,9,1,29,5,36,0.25,2,Rain-Thunderstorm,345
2013-6-13,88,70,52,61,52,41,100,61,21,29.88,29.76,29.57,10,10,8,53,10,66,0.06,0,Rain-Thunderstorm,319
2013-6-14,75,63,50,48,36,17,83,47,11,30.02,29.91,29.83,10,10,10,26,11,32,0.05,1,Thunderstorm,300
2013-6-15,82,64,45,36,27,13,65,37,8,30.07,29.96,29.85,10,10,10,13,4,16,0.00,0,,72
2013-6-16,86,67,48,45,34,19,61,35,9,30.01,29.94,29.89,10,10,10,24,6,30,0.00,0,,331
2013-6-17,87,73,58,48,41,29,62,38,13,30.05,29.95,29.84,10,10,10,16,6,20,0.00,0,,273
2013-6-18,92,75,58,48,39,27,55,33,10,29.89,29.77,29.66,10,10,10,29,8,35,T,0,,156
2013-6-19,96,77,58,43,31,12,46,26,5,29.70,29.50,29.32,10,10,10,33,12,41,0.00,0,,184
2013-6-20,82,68,53,36,21,11,34,20,6,29.82,29.75,29.63,10,10,10,22,8,28,0.00,0,,314
2013-6-21,79,66,53,42,36,32,45,32,19,29.86,29.83,29.79,10,10,10,28,13,36,0.00,0,,315
2013-6-22,72,62,52,48,43,35,83,55,27,29.95,29.88,29.80,10,10,10,35,11,40,0.02,2,Rain-Thunderstorm,315
2013-6-23,83,64,45,42,33,20,83,47,10,29.95,29.79,29.60,10,10,10,17,7,23,0.00,0,,127
2013-6-24,92,72,51,43,36,28,59,35,10,29.64,29.55,29.45,10,10,10,31,9,48,0.00,0,,281
2013-6-25,88,79,69,43,37,29,37,25,12,29.78,29.68,29.53,10,10,10,21,9,30,T,4,Rain,316
2013-6-26,93,79,65,48,42,35,49,32,14,29.94,29.84,29.78,10,10,10,23,7,28,0.00,2,,233
2013-6-27,96,78,60,50,45,39,64,39,14,30.08,30.02,29.96,10,10,10,21,8,24,0.00,0,,313
2013-6-28,96,80,63,51,47,40,60,37,14,30.14,30.07,29.99,10,10,10,24,8,28,0.00,0,,328
2013-6-29,97,80,63,55,47,39,61,38,14,30.08,30.00,29.89,10,10,10,37,9,45,T,0,,310
2013-6-30,96,79,62,56,50,42,72,44,16,30.06,29.99,29.91,10,10,10,22,6,26,0.00,0,,301